STARLINK-1882, 46784

Orbit data source: Space-Track

STARLINK-1882, 46784 is a payload satellite owned by SpaceX/Seattle (US) in LEO that was launched on Sat, 24 Oct 2020 UTC via an FALCON 9 launch vehicle from the Air Force Eastern Test Range (AFETR). Payload-class satellites include a variety of spacecraft equipped with specific instruments for various scientific and technological missions. These include communications satellites like Starlink; space stations such as the ISS; scientific satellites like the Hubble; Earth observation satellites from companies like Planet Labs, Umbra, and HawkEye 360; GPS; miniature CubeSats for education and research; and military/defense satellites.

Loading next visibility...
Identifier
46784, 2020-074AX
Orbit
LEO
Country
Flag of USUS
Related business
Manufacturer
SpaceX/Seattle
Mission
Operational Commercial Communications
Bus & Motor
STARLINK, Unknown motor
Mass
260 kg wet, ~248 kg dry
Launch date (UTC)
2020-10-24 (5 years ago)
Launch vehicle
FALCON 9
Launch site
Air Force Eastern Test Range (AFETR)
Object type
Payload
Rocket body
Debris
Shape & HBR
Box + 1 Pan, 4.4 m
Radar Cross Section
13.562 m², Large (>1 m²)

Expand to show TLE details & history
Last TLE update: 15 hours ago

TLE from 15 hours ago
0 STARLINK-1882
1 46784U 20074AX  25258.63899178 -.00000372  00000-0 -60699-5 0  9994
2 46784  53.0575  17.6824 0001220  98.3794 261.7333 15.06387775270428
Epoch: 2025-09-15T15:20Z
TLE epoch observation values (Epoch: 2025-09-15T15:20:08.889Z)
Latitude
-0.00007°
Longitude
152.80455°
Altitude
548.25 km
Speed
7.589 km/s
True Right ascension
01h 10m 43s
True Declination
0° 00' 00"
Sunlit
Object was in full shadow at epoch
Visualization orbit readout
Latitude
Unknown
Longitude
Unknown
Altitude
Unknown
Speed
Unknown
Apparent Right ascension
Unknown
Apparent Declination
Unknown
Sunlit
N/A
Visualization observer readout
Local Sidereal Time
23:04:29
Azimuth
Unknown
Elevation
Unknown
Doppler factor
Unknown
Orbital elements
Apogee altitude
548.364 km
Perigee altitude
546.674 km
Semi-major axis
6,925.656 km
Eccentricity
0.00012
Inclination
53.0575°
RAAN
17.6824°
Arg. of periapsis
98.3794°
True anomaly
261.71947°
Mean anomaly
261.7333°
Eccentric anomaly
261.72638°
Mean motion
3.76575 °/min
Orbital period
95.6 mins
BSTAR
-0.0000060699
Loading maneuver chart data...
Computing Atmospheric mass density...

Documentation

Showing up to 5 results
|